Kosmos-2324

operational
NORAD ID: 23735 Int'l Des: 1995-068 Owner: VKS/IACG Country: RU Constellation: GLONASS
MEOCIRCULAR

Über Kosmos-2324

Beschreibung wird geladen...

Live-Position

3D-Globus wird geladen...

Nächste Überflüge

Höhenverlauf

Altitude vs Time

uPlot chart will show altitude changes over time

Zweizeiliger Elementsatz

1 23735U 95068B 26059.35764495 .00000012 00000-0 00000+0 0 9995
2 23735 65.4714 206.2425 0004708 97.6505 262.3666 2.13102710235144
Epoch: 28. Feb. 2026 • Age: 102 hours

Aktueller Status

Höhe 19126.1 km
Geschwindigkeit 3.96 km/s
Subsatellitenpunkt 51.97°N, 91.94°E
Startdatum 14. Dez. 1995
Alter 30.2 years
Typ other

Technische Details

Klassifizierung Payload
Masse 1300.00 kg
Trockenmasse 1200.00 kg
Gesamtmasse 1300.00 kg
Länge 4.00 m
Durchmesser 1.50 m
Spannweite 7.80 m
Form Cyl + Ant + 2 Pan
Hersteller POL
Bus-Typ Uragan
Phasenstatus In Orbit
Besitzer/Staat VKS/IACG/RU

Große Konstellationen

Loading constellations...